Regional Weather Roundup
Issued by NWS

Home | Current Version | Previous Version | Graphics & Text | Print | Product List | Glossary On
Versions: 1 2 3 4 5 6 7 8 9 10 11 12 13 14 15 16 17 18 19 20 21 22 23 24 25 26 27 28 29 30 31 32 33 34 35 36 37 38 39 40 41 42 43 44 45 46 47 48 49 50
000
ASUS43 KMPX 220101
RWRMN
WEATHER ROUNDUP FOR MINNESOTA
NATIONAL WEATHER SERVICE TWIN CITIES/CHANHASSEN MN
700 PM CST SUN DEC 21 2014


NOTE: "FAIR" INDICATES FEW OR NO CLOUDS BELOW 12,000 FEET WITH NO
SIGNIFICANT WEATHER AND/OR OBSTRUCTIONS TO VISIBILITY. N/A MEANS
CURRENT SKY AND/OR WEATHER CONDITIONS ARE NOT AVAILABLE.

MNZ060>063-068>070-220200-
   Twin Cities Metro

CITY           SKY/WX    TMP DP  RH WIND       PRES   REMARKS
TWIN CITIES    CLOUDY    36  35  96 SE9       29.74S FOG
ST PAUL        CLOUDY    36  36 100 SE10      29.76S FOG
CRYSTAL        CLOUDY    37  36  96 SE13      29.72S FOG
LAKEVILLE      CLOUDY    36  36 100 S6        29.74S FOG
EDEN PRAIRIE   CLOUDY    37  36  96 S12       29.72S FOG
SOUTH ST PAUL  CLOUDY    37  36  96 S7        29.75S FOG
LAKE ELMO      CLOUDY    36  36 100 S9G16     29.76S FOG
$$
MNZ001>005-007-008-013>017-022>024-027-028-220200-
   Northwest Minnesota

CITY           SKY/WX    TMP DP  RH WIND       PRES   REMARKS
BEMIDJI        CLOUDY    32  31  96 SE8       29.63F WCI  25
HALLOCK        CLOUDY    32  30  93 CALM      29.60F FOG
ROSEAU         CLOUDY    32  27  80 SE8       29.64S WCI  25
WARROAD        CLOUDY    30  27  86 SE8       29.64F WCI  23
THIEF RVR FALL CLOUDY    32  28  86 E9        29.61F WCI  24
CROOKSTON      CLOUDY    32  30  93 SE8       29.60F WCI  25
FOSSTON        CLOUDY    30  28  93 SE8       29.60F WCI  23
DETROIT LAKES  CLOUDY    32  32 100 SE14      29.60F FOG     WCI  22
MOORHEAD       CLOUDY    36  36 100 SE10      29.59F
PARK RAPIDS    CLOUDY    33  32  96 SE13      29.63R FOG     WCI  24
MAHNOMEN       CLOUDY    32  31  95 SE10      29.59S WCI  24
$$
MNZ006-009>011-018-025>026-220200-
   North Central Minnesota

CITY           SKY/WX    TMP DP  RH WIND       PRES   REMARKS
BAUDETTE       CLOUDY    32  30  92 S7        29.65F WCI  26
FLAG ISLAND    CLOUDY    30  28  93 S13       29.65S WCI  20
INTL FALLS     CLOUDY    32  30  92 SE8       29.69F FOG     WCI  25
WASKISH        CLOUDY    34  30  86 CALM      29.66S
BIG FORK       MIX PCPN  34  30  86 SE5       29.68F WCI  30
LONGVILLE      CLOUDY    32  32 100 SE5       29.66F FOG     WCI  27
GRAND RAPIDS   CLOUDY    32  30  93 SE8       29.68S WCI  25
CRANE LAKE     CLOUDY    30  30 100 CALM      29.74F FOG
ORR            CLOUDY    30  28  93 SE7       29.69S FOG     WCI  23
COOK           CLOUDY    32  30  93 SE5       29.71F FOG     WCI  27
WALKER         CLOUDY    32  31  96 SE6       29.64F WCI  26
$$
MNZ012-019>021-037-220200-
   Northeast Minnesota

CITY           SKY/WX    TMP DP  RH WIND       PRES   REMARKS
DULUTH         FRZ DRZL  33  31  92 SE10      29.72F VSB 1   WCI  25
ELY            CLOUDY    30  30 100 S6        29.73F FOG     WCI  24
HIBBING        CLOUDY    33  30  88 SE8       29.71S FOG     WCI  26
EVELETH        CLOUDY    32  32 100 SE6       29.73S FOG     WCI  26
DULUTH HARBOR  CLOUDY    36  32  87 CALM      29.77F
TWO HARBORS    CLOUDY    36  30  80 E3        29.75S
SILVER BAY     CLOUDY    34  32  93 CALM      29.76S FOG
GRAND MARAIS     N/A     36  33  89 S10       29.82F
G MARAIS ARPRT MIX PCPN  28  27  93 SE7       29.77F VSB<1/4 WCI  21
$$
MNZ029>031-032-039>041-046>048-054>057-064-220200-
   West Central Minnesota

CITY           SKY/WX    TMP DP  RH WIND       PRES   REMARKS
FERGUS FALLS   CLOUDY    34  34 100 SE12      29.61F FOG     WCI  25
WHEATON        CLOUDY    32  30  93 SE13      29.59F FOG     WCI  22
MORRIS         FOG       36  34  93 SE14      29.58F VSB 1/2
ALEXANDRIA     FOG       34  33  96 SE8       29.62S VSB 3/4 WCI  27
ELBOW LAKE     CLOUDY    33  33 100 SE15G21   29.59S FOG     WCI  23
WADENA         CLOUDY    32  32 100 SE12      29.62F FOG     WCI  23
GLENWOOD       FOG       34  34 100 SE9       29.63S VSB 1/2 WCI  26
APPLETON       CLOUDY    37  36  93 SE8       29.60S FOG
BENSON         FOG       36  34  93 S9G16     29.61S VSB 1
ORTONVILLE     CLOUDY    34  32  93 SE10      29.57F FOG     WCI  26
MADISON        FAIR      39  37  93 SE10      29.59S FOG
WILLMAR        FOG       36  36 100 SE14      29.64S VSB 1/2
$$
MNZ033>034-036-042>043-049>051-058-059-220200-
   Central Minnesota

CITY           SKY/WX    TMP DP  RH WIND       PRES   REMARKS
ST CLOUD       CLOUDY    37  34  89 SE12      29.68S FOG
SAUK CENTRE    FOG       33  33 100 SE9       29.64F VSB 3/4 WCI  25
PAYNESVILLE    FOG       32  32 100 E10       29.65S VSB 1   WCI  24
AITKIN         CLOUDY    36  30  80 SE7       29.67F HAZE
PINE RIVER     CLOUDY    34  34 100 SE7       29.70S FOG     WCI  28
BRAINERD       CLOUDY    33  33 100 SE8       29.67F FOG     WCI  26
STAPLES        CLOUDY    34  34 100 SE7       29.64S FOG     WCI  28
LONG PRAIRIE   MIX PCPN  32  32 100 E7        29.64F VSB 1/2 WCI  26
LITTLE FALLS   FOG       34  32  93 SE8       29.67S VSB 1   WCI  27
LITCHFIELD     FOG       37  37 100 SE8       29.67S VSB 3/4
BUFFALO        CLOUDY    36  35  96 SE7       29.71S FOG
MAPLE LAKE     CLOUDY    36  36  99 SE7       29.70S FOG
$$
MNZ037-044-045-052-053-220200-
   East Central Minnesota

CITY           SKY/WX    TMP DP  RH WIND       PRES   REMARKS
PRINCETON      CLOUDY    36  34  93 SE8       29.71S FOG
MORA           CLOUDY    34  32  93 SE5       29.74S WCI  30
CAMBRIDGE      LGT RAIN  37  30  75 SE6       29.71S
RUSH CITY      CLOUDY    33  32  96 SE5       29.74S WCI  29
MOOSE LAKE     CLOUDY    34  32  93 S6        29.71S WCI  29
HINCKLEY       CLOUDY    34  34 100 SE7       29.73F WCI  28
CLOQUET        CLOUDY    34  32  93 SE5       29.72S FOG     WCI  30
MCGREGOR       CLOUDY    34  32  93 SE6       29.70F WCI  29
$$
MNZ071>073-080-081-089-090-097-098-220200-
   Southwest Minnesota

CITY           SKY/WX    TMP DP  RH WIND       PRES   REMARKS
MONTEVIDEO     CLOUDY    36  36 100 S9        29.62R FOG
GRANITE FALLS  CLOUDY    36  35  96 SE14      29.63R FOG
CANBY          CLOUDY    37  36  94 S13G22    29.59S FOG
MARSHALL       CLOUDY    37  34  87 S15G21    29.60S
REDWOOD FALLS  CLOUDY    37  36  96 SE15      29.64S FOG
OLIVIA         FOG       36  34  93 SE12      29.64S VSB 1
PIPESTONE      FOG       36  36 100 S17       29.58S VSB 1
WINDOM         CLOUDY    37  37 100 S17G24    29.64S FOG
WORTHINGTON    CLOUDY    37 -11  12 S17       29.63F
JACKSON        CLOUDY    37  36  93 S20       29.66F FOG
TRACY          CLOUDY    38  37  96 S22G30    29.60S FOG
SLAYTON        CLOUDY    36  36 100 S22G28    29.61S FOG
$$
MNZ065>067-074>077-082>085-091>093-220200-
   South Central Minnesota

CITY           SKY/WX    TMP DP  RH WIND       PRES   REMARKS
MANKATO        CLOUDY    37  34  87 S14G23    29.71S
NEW ULM        CLOUDY    37  37 100 S15       29.68S FOG
FAIRMONT       CLOUDY    37  34  87 S18G26    29.68S
GLENCOE        CLOUDY    37  37 100 SE10      29.69S FOG
FARIBAULT      CLOUDY    36  36 100 S7        29.74S FOG
OWATONNA       DRIZZLE   37  36  93 S15G22    29.74S
WASECA         LGT RAIN  36  36 100 S15       29.74S
ALBERT LEA     CLOUDY    37  37 100 S15G21    29.74S FOG
$$
MNZ078>079-086>088-094>096-220200-
   Southeast Minnesota

CITY           SKY/WX    TMP DP  RH WIND       PRES   REMARKS
ROCHESTER      MIX PCPN  36  35  96 S24G30    29.76S
RED WING       CLOUDY    37  36  93 SE6       29.77S FOG
STANTON        CLOUDY    38  35  89 S8        29.74S
DODGE CENTER   DRIZZLE   37  37 100 S20G28    29.74S
WINONA         CLOUDY    39  36  87 S7        29.83R
AUSTIN         DRIZZLE   37  36  93 S16G23    29.76S
PRESTON        CLOUDY    35  34  96 S22G29    29.80R FOG     WCI  24
$$
ABBREVIATIONS USED IN REMARKS
   TC - TEMPERATURES IN CELSIUS
  WCI - WIND CHILL INDEX
   HX - HEAT INDEX
  VSB - VISIBILITY
$$



USA.gov is the U.S. government's official web portal to all federal, state and local government web resources and services.